Weather History for Albemarle, NC

Change the Weather History Date:

Tuesday, April 9, 2013

  Actual Average (KHBI) Record (KHBI)
Temperature  
Mean Temperature 66 °F -  
Max Temperature 83 °F 69 °F 89 °F (2001)
Min Temperature 50 °F 45 °F 24 °F (1972)
Cooling Degree Days 2    
Growing Degree Days 16 (Base 50)    
Moisture  
Dew Point 56 °F    
Average Humidity 67    
Maximum Humidity 100    
Minimum Humidity 40    
Precipitation  
Precipitation 0.00 in - - ()
Sea Level Pressure  
Sea Level Pressure 30.18 in    
Wind  
Wind Speed 6 mph (SW)    
Max Wind Speed 16 mph    
Max Gust Speed 22 mph    
Visibility 10 miles    
Events      
Averages and records for this station are not official NWS values.
T = Trace of Precipitation, MM = Missing Value Source: NWS Daily Summary

Daily Weather History Graph

Daily Weather History Graph

Search for Another Location

Airport:

Trip Planner

Search our weather history database for the weather conditions in past years. The results will help you decide how hot, cold, wet, or windy it might be!

Date:

Astronomy

Apr. 09, 2013 Rise Set
Actual Time 6:55 AM EDT 7:48 PM EDT
Civil Twilight 6:29 AM EDT 8:14 PM EDT
Nautical Twilight 5:59 AM EDT 8:45 PM EDT
Astronomical Twilight 5:27 AM EDT 9:17 PM EDT
Moon 6:16 AM EDT (4/9) 7:22 PM EDT (4/9)
Length of Visible Light 13h 44m
Length of Day
12h 53m
Waning Crescent, 1% of the Moon is Illuminated
Apr 9
Waning Crescent
Apr 10
New
Apr 18
First Quarter
Apr 25
Full
May 2
Last Quarter

Hourly Weather History & Observations

Time (EDT) Temp. Heat Index Dew Point Humidity Pressure Visibility Wind Dir Wind Speed Gust Speed Precip Events Conditions
12:15 AM 62.6 °F - 53.8 °F 73% 30.15 in 10.0 mi SSW 6.9 mph - N/A   Clear
12:35 AM 62.6 °F - 54.1 °F 74% 30.15 in 10.0 mi SSW 9.2 mph - N/A   Clear
12:55 AM 63.3 °F - 55.2 °F 75% 30.15 in 10.0 mi SSW 10.4 mph - N/A   Clear
1:15 AM 63.3 °F - 55.4 °F 75% 30.16 in 10.0 mi SSW 10.4 mph 16.1 mph N/A   Clear
1:35 AM 62.8 °F - 55.6 °F 77% 30.16 in 10.0 mi SSW 8.1 mph - N/A   Clear
1:55 AM 61.7 °F - 55.4 °F 80% 30.16 in 10.0 mi SSW 5.8 mph - N/A   Clear
2:15 AM 60.3 °F - 54.9 °F 82% 30.16 in 10.0 mi SSW 5.8 mph - N/A   Clear
2:35 AM 60.4 °F - 54.9 °F 82% 30.16 in 10.0 mi SW 3.5 mph - N/A   Clear
2:55 AM 60.1 °F - 54.9 °F 83% 30.16 in 10.0 mi Calm Calm - N/A   Clear
3:15 AM 57.7 °F - 53.8 °F 87% 30.16 in 10.0 mi Calm Calm - N/A   Clear
3:35 AM 56.5 °F - 53.6 °F 90% 30.17 in 10.0 mi Calm Calm - N/A   Clear
3:55 AM 55.9 °F - 54.0 °F 93% 30.17 in 10.0 mi Calm Calm - N/A   Clear
4:15 AM 55.0 °F - 53.4 °F 94% 30.17 in 10.0 mi Calm Calm - N/A   Clear
4:35 AM 53.1 °F - 51.6 °F 95% 30.17 in 10.0 mi Calm Calm - N/A   Clear
4:55 AM 54.1 °F - 52.9 °F 95% 30.18 in 10.0 mi Calm Calm - N/A   Clear
5:15 AM 54.0 °F - 52.7 °F 95% 30.17 in 10.0 mi Calm Calm - N/A   Clear
5:35 AM 51.4 °F - 50.5 °F 97% 30.18 in 10.0 mi Calm Calm - N/A   Clear
5:55 AM 50.7 °F - 49.5 °F 95% 30.19 in 10.0 mi Calm Calm - N/A   Clear
6:15 AM 51.8 °F - 50.9 °F 97% 30.20 in 10.0 mi Calm Calm - N/A   Clear
6:35 AM 52.3 °F - 51.8 °F 98% 30.21 in 10.0 mi Calm Calm - N/A   Clear
6:55 AM 50.5 °F - 50.2 °F 99% 30.22 in 5.0 mi Calm Calm - N/A   Clear
7:15 AM 50.9 °F - 50.9 °F 100% 30.22 in 2.5 mi Calm Calm - N/A   Clear
7:35 AM 51.1 °F - 51.1 °F 100% 30.22 in 5.0 mi Calm Calm - N/A   Clear
7:55 AM 52.9 °F - 52.7 °F 99% 30.22 in 7.0 mi Calm Calm - N/A   Clear
8:15 AM 59.0 °F - 57.0 °F 93% 30.23 in 10.0 mi SSW 3.5 mph - N/A   Clear
8:35 AM 61.5 °F - 57.4 °F 86% 30.24 in 10.0 mi SSW 5.8 mph - N/A   Clear
8:55 AM 63.5 °F - 57.4 °F 80% 30.24 in 10.0 mi SW 4.6 mph - N/A   Clear
9:15 AM 64.2 °F - 56.7 °F 76% 30.24 in 10.0 mi SW 6.9 mph - N/A   Clear
9:35 AM 66.4 °F - 57.2 °F 72% 30.24 in 10.0 mi SSW 5.8 mph - N/A   Clear
9:55 AM 68.4 °F - 57.2 °F 67% 30.24 in 10.0 mi WSW 5.8 mph - N/A   Clear
10:15 AM 69.6 °F - 57.2 °F 65% 30.25 in 10.0 mi WSW 6.9 mph - N/A   Clear
10:35 AM 71.1 °F - 57.7 °F 63% 30.25 in 10.0 mi WNW 5.8 mph - N/A   Clear
10:55 AM 72.7 °F - 57.9 °F 60% 30.25 in 10.0 mi SSW 4.6 mph - N/A   Clear
11:15 AM 73.9 °F - 58.1 °F 58% 30.25 in 10.0 mi SW 4.6 mph - N/A   Clear
11:35 AM 75.4 °F - 58.1 °F 55% 30.24 in 10.0 mi West 4.6 mph - N/A   Clear
11:55 AM 77.0 °F - 58.5 °F 53% 30.24 in 10.0 mi West 6.9 mph - N/A   Clear
12:15 PM 77.9 °F - 58.5 °F 51% 30.23 in 10.0 mi South 6.9 mph - N/A   Clear
12:35 PM 78.8 °F - 58.8 °F 50% 30.22 in 10.0 mi North - - N/A   Clear
12:55 PM 79.5 °F - 57.7 °F 47% 30.21 in 10.0 mi South 6.9 mph - N/A   Clear
1:15 PM 80.2 °F 80.7 °F 58.5 °F 47% 30.21 in 10.0 mi WSW 5.8 mph - N/A   Scattered Clouds
1:35 PM 81.0 °F 81.1 °F 57.9 °F 45% 30.20 in 10.0 mi South 4.6 mph 9.2 mph N/A   Scattered Clouds
1:55 PM 82.2 °F 82.1 °F 58.1 °F 44% 30.19 in 10.0 mi SSW 10.4 mph - N/A   Scattered Clouds
2:15 PM 82.2 °F 81.8 °F 56.7 °F 41% 30.19 in 10.0 mi SW 5.8 mph 17.3 mph N/A   Scattered Clouds
2:35 PM 81.9 °F 81.4 °F 56.3 °F 41% 30.18 in 10.0 mi SSW 11.5 mph 18.4 mph N/A   Scattered Clouds
2:55 PM 82.2 °F 81.9 °F 56.8 °F 42% 30.17 in 10.0 mi SW 8.1 mph - N/A   Scattered Clouds
3:15 PM 83.1 °F 82.6 °F 56.8 °F 41% 30.17 in 10.0 mi South 12.7 mph 16.1 mph N/A   Scattered Clouds
3:35 PM 82.6 °F 82.0 °F 56.3 °F 40% 30.16 in 10.0 mi SSW 10.4 mph 20.7 mph N/A   Scattered Clouds
3:55 PM 81.9 °F 81.6 °F 56.5 °F 42% 30.15 in 10.0 mi SSW 5.8 mph 17.3 mph N/A   Scattered Clouds
4:15 PM 82.0 °F 81.7 °F 56.8 °F 42% 30.14 in 10.0 mi SW 13.8 mph - N/A   Scattered Clouds
4:35 PM 81.9 °F 81.6 °F 56.7 °F 42% 30.14 in 10.0 mi SSW 16.1 mph 21.9 mph N/A   Mostly Cloudy
4:55 PM 81.9 °F 81.8 °F 57.7 °F 44% 30.14 in 10.0 mi SSW 10.4 mph - N/A   Mostly Cloudy
5:15 PM 81.3 °F 81.2 °F 57.0 °F 43% 30.14 in 10.0 mi SSW 12.7 mph - N/A   Scattered Clouds
5:35 PM 81.5 °F 81.4 °F 57.2 °F 43% 30.14 in 10.0 mi SW 11.5 mph 16.1 mph N/A   Scattered Clouds
5:55 PM 81.7 °F 81.5 °F 57.0 °F 43% 30.14 in 10.0 mi SW 11.5 mph - N/A   Mostly Cloudy
6:15 PM 81.0 °F 81.1 °F 57.6 °F 45% 30.14 in 10.0 mi SSW 11.5 mph - N/A   Scattered Clouds
6:35 PM 80.1 °F 80.4 °F 56.7 °F 45% 30.14 in 10.0 mi SSW 10.4 mph - N/A   Clear
6:55 PM 78.8 °F - 56.8 °F 47% 30.14 in 10.0 mi SW 11.5 mph - N/A   Clear
7:15 PM 77.2 °F - 57.2 °F 50% 30.14 in 10.0 mi SW 5.8 mph - N/A   Clear
7:35 PM 76.1 °F - 56.3 °F 50% 30.14 in 10.0 mi SSW 9.2 mph - N/A   Clear
7:55 PM 72.5 °F - 56.3 °F 57% 30.14 in 10.0 mi South 4.6 mph - N/A   Clear
8:15 PM 72.7 °F - 56.5 °F 57% 30.14 in 10.0 mi SSW 5.8 mph - N/A   Clear
8:35 PM 71.1 °F - 56.5 °F 60% 30.15 in 10.0 mi South 4.6 mph - N/A   Clear
8:55 PM 70.7 °F - 56.7 °F 61% 30.15 in 10.0 mi SSW 3.5 mph - N/A   Clear
9:15 PM 70.3 °F - 56.5 °F 61% 30.16 in 10.0 mi SSW 5.8 mph - N/A   Clear
9:35 PM 69.1 °F - 56.3 °F 64% 30.16 in 10.0 mi SSW 4.6 mph - N/A   Clear
9:55 PM 68.0 °F - 56.3 °F 66% 30.17 in 10.0 mi SW 3.5 mph - N/A   Clear
10:15 PM 67.5 °F - 56.1 °F 67% 30.17 in 10.0 mi SSW 5.8 mph - N/A   Clear
10:35 PM 66.2 °F - 55.4 °F 68% 30.16 in 10.0 mi SW 5.8 mph - N/A   Clear
10:55 PM 67.3 °F - 56.3 °F 68% 30.15 in 10.0 mi Calm Calm - N/A   Clear
11:15 PM 65.7 °F - 55.8 °F 70% 30.15 in 10.0 mi SSW 5.8 mph - N/A   Clear
11:35 PM 65.1 °F - 56.1 °F 73% 30.14 in 10.0 mi SW 5.8 mph - N/A   Clear
11:55 PM 66.7 °F - 56.3 °F 69% 30.13 in 10.0 mi SW 3.5 mph - N/A   Clear